CAPE
2436 2656 2980 2474 2546 2307 2307 2430 2422 2533 2639 2277 2254 2487 2691 2587 2343 2628 2453 3110 3271 3903 3663 4329 3649 3389 3523 3949 5116 3537 4082 3842 4438 3513 3458 3530 3655 3029 2727 2858 2611 1785
2255 2592 2713 2472 2687 2811 2889 2628 2452 2402 2728 3229 2456 2729 2423 2975 2373 2796 3099 3297 3612 3455 4582 3973 3652 3904 3901 3757 4006 3508 4530 4454 3657 2584 3545 3868 2819 3094 2664 2690 2386 3594
2332 2530 2484 2482 2361 2702 2366 2459 2485 2688 2740 2672 2263 2561 2675 2742 2947 2328 3055 3018 3099 3017 3126 4101 4270 3942 3417 3995 4862 3668 3534 3849 3462 3018 3543 3985 3669 3515 3232 3006 2637 2584
2392 2334 2108 1675 1931 2047 2028 2294 2585 2891 2632 2482 2521 1846 2131 1888 2083 2436 2869 2637 3189 3131 2876 2955 3162 3335 3182 3929 4482 3367 3261 4456 3836 4041 4348 4049 3711 3247 3321 2921 2554 2557
2220 2224 2184 1889 1560 1687 1873 1950 2161 2342 2369 2390 2202 2370 1685 3054 2632 2990 2757 2667 2970 2993 3622 3944 3702 3428 3809 3936 4347 3609 3502 3733 3482 3796 3803 4142 3533 3127 2550 2844 3394 2932
1864 2050 2149 2218 1937 1797 1881 1895 2089 1815 2048 1923 2274 2213 2305 2724 2852 2697 2733 2726 2532 2570 2777 2855 3226 2864 3214 3764 4007 3828 3096 3300 2051 3316 3912 3719 3153 2988 2585 2965 3380 3252
1425 1737 1809 1716 1885 2040 1971 1856 1959 1992 1976 1983 2032 2058 2248 2564 2556 2704 2841 2728 2647 2417 2294 2513 3117 2858 2813 3224 3899 3752 3860 3354 3094 4317 4208 3722 3401 3277 2894 3246 3354 3207
1080 1262 1526 1566 1468 1564 1770 1903 2083 2131 2154 2064 1892 1941 2109 2317 2651 2501 2352 2746 2480 2566 2514 2634 3405 3491 3286 2862 3546 4139 4095 3377 2356 2851 2854 3220 3822 4367 3600 2648 3706 3863
952 1186 1059 1209 1142 1071 1254 1467 1792 2037 2061 2082 1870 1858 2051 2173 2406 2334 2439 2588 2270 2350 2745 2891 3626 3585 2666 3001 3085 3660 4018 3438 2745 3065 3056 3205 3094 2908 2749 2789 2625 2763
1049 917 786 1169 920 881 747 1262 1270 1477 1892 1972 1916 1796 1854 2106 2127 2243 2343 2787 2290 2672 3281 2718 3434 3010 2950 2694 3000 3887 3938 3344 2835 3222 3804 3625 3257 2644 2721 2708 2332 2398
898 910 759 1004 1086 928 910 977 1062 1191 1425 1748 1868 1678 1594 1850 2064 2112 2238 3020 2609 2707 3187 3194 3268 3356 2896 2418 2670 2673 2520 2357 2534 2748 2744 2796 2720 2593 2574 2565 2493 2252
1320 1117 926 578 727 978 862 836 912 1066 1034 1055 1411 1626 1701 1552 1794 1995 1992 2922 3040 2479 2575 2834 2766 2867 3072 2857 2631 2495 2641 2759 2474 2580 2629 2744 2778 2418 2438 2236 1884 1961
1749 1445 1126 877 826 950 881 885 915 995 683 909 1123 1410 1617 1564 1479 1924 1888 1879 2652 2257 1947 2527 2925 2594 2786 2964 2819 2775 2661 2853 2524 2517 2350 1987 2357 2033 1876 1917 1974 1785
2346 1865 1359 1142 974 1091 974 1003 1026 996 1049 896 563 853 1296 1517 1462 1492 1873 1945 1912 1912 1800 1764 2184 2422 2534 2726 2704 2636 2596 2844 3065 2704 2539 2558 2469 2457 1997 1552 1254 1135
2636 2216 1904 1569 1450 1440 1375 1282 1251 1214 1190 1172 1014 735 1169 1318 1466 1381 1527 1725 1669 1862 1807 1517 1489 1807 2033 2233 2564 2948 2861 2611 2571 2486 2469 2233 2071 1823 1701 1497 1105 1200
3017 2806 2779 2525 2348 2394 2490 2176 1654 1779 1488 1523 1340 1324 1366 1593 1433 1300 1345 1362 1540 1751 1508 1323 1164 881 1317 1811 1733 1915 2379 2018 1544 1254 1128 1799 1997 1940 1560 1160 1085 1097
3159 3246 3368 2737 3161 3139 3252 3350 2474 1939 1672 1561 1753 1773 2036 2180 1920 1887 1638 1332 1174 1436 1709 1405 1101 772 1569 1295 1421 1577 1674 1943 1930 2153 2262 2250 2132 2208 1990 1527 1164 975
2723 2853 2410 2824 3282 4070 3852 3497 3473 3274 3054 2302 1658 1833 2449 2276 2204 2062 2102 1886 1585 1318 1275 1093 1113 488 1289 1172 1273 1372 1787 1544 1054 996 1069 1060 1260 1276 1247 1131 973 879
1892 2200 2761 2497 2060 2471 3845 3757 4105 4096 3451 2928 2473 2381 2162 2271 2254 2007 1881 1751 1433 1502 812 524 458 1054 998 1168 1298 1247 1081 1632 974 731 581 694 526 716 788 851 1607 1678
2328 2055 1770 1973 2357 2336 2502 2411 2420 2794 2850 2616 2542 2322 2297 2311 2005 2138 1844 1790 1483 1134 1431 635 579 1271 1033 1180 1186 966 986 835 1052 724 775 672 757 770 848 819 1087 1213
1777 2149 1987 1758 1865 1776 1822 1922 2154 2309 2180 2524 2430 2220 2170 2255 1839 1882 1502 1688 1239 951 892 534 1292 814 967 865 791 728 695 650 1090 864 767 557 526 759 1273 1172 1141 1051
1011 1051 1049 1211 1346 1130 1182 1368 1412 1609 1472 1781 1856 2015 1820 1610 2117 1907 2150 1600 1647 1335 1079 952 833 1208 899 909 892 931 942 1046 1552 1753 1569 1225 1085 1147 1141 1511 1320 1840
717 841 777 671 620 611 742 818 765 1051 1185 1014 1325 1594 1588 1609 1282 1430 1593 1558 1290 975 1003 1115 827 974 1434 1249 1281 1178 1143 1883 2056 1900 1703 1648 1094 1099 1162 2438 1986 2389
599 508 434 429 402 456 456 420 444 536 570 562 655 874 1036 1059 902 1413 1512 1530 1059 1148 1139 1504 1689 1370 1423 1703 1690 1585 1485 1656 2302 1834 2202 920 1016 1287 1600 1583 2047 2647
513 434 516 407 396 262 364 466 454 408 432 431 432 646 786 892 1244 1280 1290 1054 896 1096 1404 1442 1387 1161 1012 1326 1471 1450 1445 1753 2080 2174 1394 1451 1331 1574 1404 1401 1660 1560
430 380 286 259 282 326 255 372 495 522 508 605 632 603 584 717 1063 1041 1008 1000 963 1182 1337 1169 1087 1042 1050 1202 1267 1220 1192 1598 2102 1565 1338 1135 1743 1663 1608 1375 1347 1149
Wind_Speed
9 9 9 9 9 8 7 7 6 6 6 6 4 5 5 4 4 5 2 4 2 1 1 1 1 0 2 3 2 3 6 2 6 3 1 1 1 2 2 3 4 3
10 10 11 10 10 10 9 8 8 7 7 7 8 10 5 5 4 3 4 4 4 2 3 2 2 2 1 3 4 3 2 2 3 4 4 3 1 1 2 3 3 5
9 11 10 9 10 10 8 9 9 8 7 6 6 6 7 5 5 5 5 4 4 4 4 3 4 3 3 4 5 3 5 4 3 0 5 3 1 2 1 1 5 7
9 10 10 9 10 11 9 10 9 9 7 8 8 7 6 8 7 8 6 5 6 5 6 4 4 4 5 5 4 4 5 5 4 2 4 3 3 2 3 2 4 3
9 9 10 10 11 11 11 10 9 10 8 9 9 9 10 11 10 9 8 8 6 5 6 5 5 3 6 5 5 3 5 4 2 3 3 3 3 3 2 3 4 3
11 11 11 11 12 12 12 11 10 9 11 10 10 11 11 11 9 8 9 9 8 6 6 6 6 5 5 7 5 5 3 4 4 3 1 3 2 3 2 6 4 2
14 13 11 11 11 13 12 12 12 11 12 11 13 11 11 12 11 9 9 9 7 9 6 8 7 7 6 6 8 5 5 7 8 5 2 3 2 1 1 3 2 2
15 16 14 13 12 13 13 13 12 13 12 12 12 14 11 11 12 11 10 9 8 8 8 8 10 8 6 7 7 6 4 4 4 6 4 2 2 2 2 2 3 2
16 16 16 14 13 14 13 13 15 13 14 14 13 15 14 11 13 11 11 12 9 10 10 8 10 9 8 7 7 7 6 3 5 9 3 3 2 2 1 2 1 1
16 16 15 15 15 16 15 14 15 16 15 15 15 15 15 15 12 12 14 13 11 10 11 9 9 8 8 9 9 8 7 7 5 5 6 5 4 4 4 3 3 2
16 16 15 15 15 17 16 16 16 16 17 16 18 17 15 16 17 14 15 16 13 12 12 10 9 9 8 7 9 9 9 8 8 8 7 6 5 5 5 5 5 5
15 15 15 16 16 16 16 17 17 17 17 18 18 18 17 16 18 17 16 16 15 13 13 12 11 10 10 8 8 9 11 10 10 9 8 8 7 6 6 4 4 3
16 15 15 16 18 18 18 19 18 19 18 17 21 19 18 18 18 19 19 17 16 15 14 13 13 12 12 11 9 10 10 11 11 11 10 9 9 7 6 6 5 5
16 17 14 15 18 20 20 20 21 20 20 18 19 20 20 19 18 20 21 19 18 17 16 16 16 14 14 14 13 12 12 12 12 11 11 10 9 9 8 8 7 6
18 18 18 17 17 19 21 21 22 22 21 22 22 20 21 21 20 20 21 21 20 19 19 18 17 18 17 17 16 14 13 13 13 12 12 12 11 9 9 10 9 8
22 21 21 22 22 21 21 21 22 23 24 24 23 22 22 23 22 22 21 21 21 22 21 19 19 21 21 19 21 19 16 16 16 15 11 12 13 12 10 10 10 9
26 25 25 23 25 24 23 22 22 23 25 26 25 25 25 25 24 23 23 23 22 23 23 21 22 23 30 33 31 27 21 20 18 16 15 15 15 15 12 11 10 9
24 25 26 24 26 27 27 25 25 23 23 25 26 27 29 27 26 25 25 24 24 24 23 24 24 31 37 33 31 29 24 19 17 17 17 18 17 15 15 13 12 11
22 23 24 26 24 22 28 29 29 28 26 25 25 26 28 29 29 28 27 26 25 26 24 24 25 42 37 36 35 32 28 22 19 18 18 18 18 18 17 17 16 15
23 23 23 23 23 25 26 26 27 29 28 28 27 26 26 27 28 29 29 31 29 27 28 27 34 43 37 37 37 34 32 25 21 19 19 19 19 19 18 18 19 17
21 23 24 23 24 25 25 24 26 29 29 29 30 31 31 29 28 29 32 33 32 31 32 34 48 45 43 40 38 36 34 28 24 21 20 20 19 19 19 18 19 18
33 30 25 23 25 26 25 24 24 25 26 28 29 31 31 32 31 30 32 39 43 44 43 48 45 49 44 43 40 39 35 29 26 23 21 20 20 21 22 22 21 26
33 33 34 35 33 29 26 26 27 29 31 31 28 28 28 33 32 31 38 40 42 44 46 42 45 48 46 46 45 41 34 31 27 25 22 21 21 22 24 35 36 33
35 36 37 36 31 30 29 30 32 32 33 33 32 35 36 40 39 36 38 39 39 43 48 48 51 48 46 51 49 46 38 35 32 28 36 35 32 35 36 30 29 40
36 36 36 34 33 32 29 28 28 30 32 33 34 35 36 37 35 38 38 38 41 45 52 51 51 49 51 52 54 50 44 40 37 37 34 31 30 32 33 30 33 40
38 38 37 36 35 33 33 31 29 29 30 32 34 34 36 37 37 36 37 37 38 41 44 45 49 53 55 57 57 55 49 44 43 38 33 33 33 35 31 33 35 36
Wind_Direction
250 247 249 248 247 238 238 243 237 233 208 218 221 226 219 211 192 220 229 257 263 250 279 203 233 237 319 297 306 328 311 16 298 347 341 309 344 339 323 308 299 323
254 252 245 248 246 243 239 237 244 225 241 210 208 244 206 234 243 229 237 250 259 259 256 272 280 279 288 295 306 324 282 298 312 324 319 310 326 335 323 308 277 265
256 258 256 255 255 259 257 253 243 239 238 242 235 237 248 244 253 253 249 252 262 272 270 258 274 285 294 291 303 330 339 327 316 325 290 288 270 255 252 269 321 298
258 258 261 258 256 261 255 257 257 246 241 252 250 259 241 260 262 270 261 260 257 261 278 285 284 300 305 302 314 327 333 321 322 344 300 300 286 270 272 282 241 267
269 263 256 258 255 255 257 256 255 256 251 249 255 253 256 239 260 263 267 271 258 266 270 278 288 290 292 301 308 323 272 317 331 329 320 308 306 302 309 299 255 228
267 260 258 253 256 258 254 258 256 251 258 260 253 257 259 263 257 256 269 275 284 281 288 293 294 297 302 302 308 293 301 285 262 345 305 309 322 316 313 283 291 298
273 269 270 265 261 262 256 255 256 250 252 251 259 251 257 267 266 260 263 270 276 284 289 290 285 284 286 287 292 306 321 312 324 305 346 302 312 269 211 259 260 258
271 272 272 268 270 267 264 260 256 262 257 255 258 264 256 260 268 271 273 273 279 283 282 284 289 283 284 290 295 302 309 304 318 308 321 278 234 266 278 206 258 289
270 272 270 275 275 269 271 268 266 264 265 264 262 265 269 260 269 272 273 277 274 278 282 281 287 295 296 294 295 300 301 276 278 294 300 281 272 267 226 245 272 255
267 264 271 272 273 268 269 270 269 270 268 267 267 264 267 272 264 268 275 277 279 275 281 281 285 289 293 299 301 297 291 294 278 265 268 264 246 231 226 223 201 207
268 266 264 265 265 264 270 270 270 270 270 267 271 268 264 268 271 264 266 274 277 280 279 279 279 282 285 288 295 296 298 299 295 295 294 289 275 254 237 214 208 193
276 270 266 264 261 261 262 265 268 269 272 278 271 269 271 267 269 271 268 270 269 270 272 274 273 272 277 280 283 289 291 290 294 298 298 296 292 290 286 277 242 241
287 281 273 269 265 260 261 260 260 265 263 262 274 275 273 271 271 273 272 272 272 269 269 269 269 272 271 277 275 274 281 286 292 295 295 292 297 298 291 282 273 259
280 282 280 272 268 264 258 256 257 258 264 261 259 271 274 273 274 275 274 272 274 274 271 269 271 269 271 270 272 271 275 280 279 282 284 288 291 295 294 285 280 272
267 274 275 273 270 265 261 255 256 258 257 257 257 257 266 271 271 270 273 275 273 271 269 269 270 272 267 269 267 267 264 268 272 279 284 283 284 282 290 294 288 283
261 259 266 272 274 271 267 266 261 256 256 259 259 259 257 259 264 269 272 272 272 272 271 268 266 263 266 271 270 265 267 259 254 249 255 273 276 277 275 280 287 285
255 259 257 261 267 268 270 270 267 262 258 257 257 256 255 257 258 264 268 270 274 273 273 270 265 260 272 274 267 256 260 268 268 271 273 268 270 269 270 268 270 273
261 261 257 251 248 258 265 265 264 264 260 259 259 260 258 258 261 262 263 266 270 273 272 269 264 265 277 277 278 276 268 262 260 263 266 269 272 270 269 270 269 273
267 267 266 267 266 257 255 259 259 260 263 263 264 262 261 262 260 262 264 264 262 264 268 266 264 271 278 278 278 276 274 266 263 259 256 257 259 263 263 261 259 261
265 265 270 269 265 260 257 260 260 258 256 260 260 261 265 264 266 265 261 260 260 260 261 262 254 259 271 280 279 277 274 269 263 259 257 257 255 255 258 259 261 262
259 272 270 269 266 263 261 262 263 258 257 256 260 260 258 262 261 263 261 261 259 257 256 257 254 247 248 251 259 266 268 264 260 258 258 260 262 263 265 263 257 256
254 257 263 267 270 266 264 265 265 263 260 256 257 257 256 256 258 255 257 254 248 244 241 248 254 253 252 252 251 255 258 263 261 261 263 263 265 265 259 261 258 251
258 258 254 251 250 261 270 269 267 264 260 255 256 254 252 249 250 251 250 257 259 258 258 256 251 246 247 251 253 250 253 260 258 255 259 261 261 263 260 255 256 259
258 258 258 259 262 265 264 260 258 257 257 256 254 252 254 255 255 255 259 259 262 261 255 255 252 246 243 245 246 247 248 252 252 251 248 244 241 244 251 255 256 252
254 255 259 261 260 260 260 263 263 261 262 259 259 257 258 262 263 262 260 257 257 262 257 256 254 249 242 242 244 243 244 249 249 250 253 256 252 252 254 257 260 256
255 254 254 256 259 259 257 257 261 263 260 259 256 256 260 258 257 261 264 258 260 263 263 260 256 252 247 243 241 241 241 249 251 254 252 253 252 257 257 258 261 266